Voltar ao catálogo

COSMOS 1546

AtivoNavegaçãoGEO
NORAD 14867·PAYLOAD·🇷🇺 Russia

Lançado Mar 29, 1984 de Baikonur Cosmodrome

Loading…

TLE

AtualizadoSource: Space-Track

Época: Sep 13, 2026, 17:36 UTC

1 14867U 84031A   26256.73340786 -.00000050  00000-0  00000-0 0  9997
2 14867   8.5129 310.9400 0024010  17.3692 357.2983  1.00269667 48269

Acompanhe COSMOS 1546 em tempo real com AllMySat

Download on the App Store